| time (UTC) | temp F | wind direction | speed MPH | gust MPH | rain 1hr in | rain 24hr in | rain mn in | humidity % | barometer mb |
| 20260507141805 | 54 | 16 | 0.0 | 3.0 | 0.00 | 0.06 | 0.01 | 93 | 1012.1 |
| 20260507141304 | 54 | 22 | 1.0 | 3.0 | 0.00 | 0.06 | 0.01 | 93 | 1012.1 |
| 20260507140804 | 54 | 17 | 1.0 | 2.0 | 0.00 | 0.06 | 0.01 | 92 | 1012.4 |
| 20260507140305 | 55 | 28 | 1.0 | 3.0 | 0.00 | 0.06 | 0.01 | 93 | 1012.2 |
| 20260507135805 | 55 | 41 | 2.0 | 5.0 | 0.00 | 0.06 | 0.01 | 94 | 1012.1 |
| 20260507134804 | 54 | 31 | 2.0 | 3.0 | 0.00 | 0.06 | 0.01 | 94 | 1012.5 |
| 20260507134304 | 54 | 33 | 2.0 | 2.0 | 0.00 | 0.06 | 0.01 | 94 | 1012.4 |
| 20260507133304 | 54 | 238 | 1.0 | 5.0 | 0.00 | 0.07 | 0.01 | 95 | 1012.3 |
| 20260507132804 | 55 | 34 | 2.0 | 6.0 | 0.00 | 0.07 | 0.01 | 95 | 1012.2 |
| 20260507132307 | 55 | 25 | 2.0 | 6.0 | 0.00 | 0.08 | 0.01 | 94 | 1012.0 |
| 20260507131804 | 55 | 47 | 3.0 | 6.0 | 0.00 | 0.08 | 0.01 | 95 | 1011.8 |
| 20260507131304 | 55 | 46 | 3.0 | 6.0 | 0.00 | 0.09 | 0.01 | 95 | 1011.6 |
| 20260507130804 | 55 | 55 | 5.0 | 6.0 | 0.00 | 0.10 | 0.01 | 95 | 1011.6 |
| 20260507130304 | 55 | 36 | 4.0 | 6.0 | 0.00 | 0.10 | 0.01 | 95 | 1011.8 |
| 20260507125804 | 55 | 70 | 3.0 | 7.0 | 0.00 | 0.10 | 0.01 | 96 | 1012.2 |
| 20260507124804 | 55 | 70 | 5.0 | 7.0 | 0.00 | 0.10 | 0.01 | 97 | 1012.0 |
| 20260507124304 | 54 | 57 | 5.0 | 7.0 | 0.00 | 0.10 | 0.01 | 97 | 1012.0 |
| 20260507123804 | 54 | 71 | 5.0 | 6.0 | 0.00 | 0.10 | 0.01 | 97 | 1012.5 |
| 20260507123304 | 54 | 57 | 2.0 | 5.0 | 0.00 | 0.10 | 0.01 | 97 | 1012.5 |
| 20260507122804 | 55 | 66 | 2.0 | 2.0 | 0.00 | 0.10 | 0.01 | 97 | 1012.7 |
| 20260507121804 | 55 | 9 | 1.0 | 2.0 | 0.00 | 0.10 | 0.01 | 98 | 1013.0 |
| 20260507121304 | 55 | 78 | 1.0 | 2.0 | 0.00 | 0.11 | 0.01 | 98 | 1012.9 |
| 20260507120804 | 54 | 108 | 0.0 | 1.0 | 0.00 | 0.11 | 0.01 | 98 | 1012.9 |
| 20260507120304 | 54 | 107 | 1.0 | 2.0 | 0.00 | 0.11 | 0.01 | 98 | 1012.8 |
| 20260507115804 | 54 | 67 | 2.0 | 3.0 | 0.00 | 0.11 | 0.01 | 98 | 1012.6 |
| 20260507114804 | 54 | 215 | 0.0 | 1.0 | 0.00 | 0.14 | 0.01 | 98 | 1012.6 |
| 20260507114304 | 54 | 210 | 0.0 | 2.0 | 0.00 | 0.16 | 0.01 | 98 | 1012.8 |
| 20260507113803 | 54 | 179 | 1.0 | 2.0 | 0.00 | 0.20 | 0.01 | 98 | 1012.6 |
| 20260507113304 | 54 | 63 | 0.0 | 3.0 | 0.00 | 0.21 | 0.01 | 98 | 1012.5 |
| 20260507112804 | 54 | 63 | 2.0 | 3.0 | 0.00 | 0.22 | 0.01 | 97 | 1012.0 |
| 20260507112307 | 54 | 91 | 2.0 | 3.0 | 0.00 | 0.22 | 0.01 | 97 | 1012.3 |
| 20260507111804 | 54 | 94 | 2.0 | 2.0 | 0.00 | 0.22 | 0.01 | 97 | 1012.3 |
| 20260507111304 | 55 | 106 | 1.0 | 2.0 | 0.00 | 0.22 | 0.01 | 97 | 1012.2 |
| 20260507110804 | 55 | 106 | 1.0 | 1.0 | 0.00 | 0.22 | 0.01 | 97 | 1011.8 |
| 20260507110303 | 55 | 107 | 1.0 | 1.0 | 0.00 | 0.22 | 0.01 | 97 | 1012.0 |
| 20260507105804 | 55 | 109 | 1.0 | 1.0 | 0.00 | 0.22 | 0.01 | 97 | 1012.3 |
| 20260507105306 | 55 | 109 | 1.0 | 1.0 | 0.00 | 0.22 | 0.01 | 97 | 1012.1 |
| 20260507104804 | 55 | 109 | 0.0 | 0.0 | 0.00 | 0.22 | 0.01 | 97 | 1012.1 |
| 20260507104304 | 55 | 109 | 0.0 | 1.0 | 0.00 | 0.22 | 0.01 | 97 | 1012.0 |
| 20260507103803 | 55 | 109 | 0.0 | 2.0 | 0.00 | 0.22 | 0.01 | 97 | 1012.0 |
| 20260507102804 | 54 | 108 | 0.0 | 2.0 | 0.00 | 0.22 | 0.01 | 97 | 1011.8 |
| 20260507102306 | 54 | 79 | 1.0 | 2.0 | 0.00 | 0.22 | 0.01 | 97 | 1011.8 |
| 20260507101804 | 54 | 53 | 1.0 | 2.0 | 0.00 | 0.22 | 0.01 | 97 | 1012.4 |
| 20260507101304 | 55 | 52 | 1.0 | 5.0 | 0.00 | 0.22 | 0.01 | 97 | 1011.9 |
| 20260507100803 | 55 | 45 | 3.0 | 5.0 | 0.00 | 0.22 | 0.01 | 96 | 1011.6 |
| 20260507100304 | 56 | 33 | 3.0 | 5.0 | 0.00 | 0.22 | 0.01 | 97 | 1011.6 |
| 20260507095803 | 56 | 280 | 0.0 | 2.0 | 0.00 | 0.22 | 0.01 | 97 | 1011.7 |
| 20260507095306 | 56 | 232 | 0.0 | 2.0 | 0.00 | 0.22 | 0.01 | 97 | 1011.6 |
| 20260507094803 | 56 | 291 | 1.0 | 2.0 | 0.00 | 0.22 | 0.01 | 97 | 1011.5 |
| 20260507093804 | 56 | 285 | 2.0 | 3.0 | 0.01 | 0.22 | 0.01 | 96 | 1011.4 |
| 20260507092306 | 56 | 247 | 2.0 | 3.0 | 0.01 | 0.22 | 0.01 | 95 | 1011.7 |
| 20260507091804 | 56 | 291 | 2.0 | 3.0 | 0.01 | 0.22 | 0.01 | 95 | 1011.2 |
| 20260507091303 | 57 | 286 | 2.0 | 3.0 | 0.01 | 0.22 | 0.01 | 94 | 1011.2 |
| 20260507090807 | 57 | 66 | 0.0 | 0.0 | 0.01 | 0.22 | 0.01 | 94 | 1011.1 |
| 20260507085807 | 58 | 86 | 1.0 | 3.0 | 0.01 | 0.22 | 0.01 | 92 | 1011.0 |
| 20260507084808 | 58 | 101 | 0.0 | 1.0 | 0.01 | 0.22 | 0.01 | 92 | 1011.1 |
| 20260507084307 | 58 | 101 | 0.0 | 1.0 | 0.00 | 0.21 | 0.00 | 92 | 1011.1 |
| 20260507083307 | 58 | 101 | 1.0 | 2.0 | 0.00 | 0.21 | 0.00 | 92 | 1011.3 |
| 20260507082807 | 58 | 97 | 1.0 | 2.0 | 0.00 | 0.21 | 0.00 | 92 | 1011.2 |
| 20260507082307 | 58 | 73 | 1.0 | 2.0 | 0.00 | 0.21 | 0.00 | 92 | 1011.1 |
| 20260507081807 | 58 | 68 | 2.0 | 3.0 | 0.00 | 0.21 | 0.00 | 92 | 1011.1 |
| 20260507081307 | 58 | 66 | 2.0 | 3.0 | 0.00 | 0.21 | 0.00 | 92 | 1011.4 |
| 20260507080808 | 58 | 66 | 0.0 | 1.0 | 0.00 | 0.21 | 0.00 | 92 | 1011.8 |
| 20260507080308 | 58 | 66 | 0.0 | 0.0 | 0.00 | 0.21 | 0.00 | 92 | 1011.9 |
| 20260507075807 | 58 | 66 | 0.0 | 3.0 | 0.00 | 0.21 | 0.00 | 91 | 1011.7 |
| 20260507074807 | 58 | 66 | 2.0 | 3.0 | 0.00 | 0.21 | 0.00 | 91 | 1011.4 |
| 20260507074307 | 58 | 74 | 3.0 | 3.0 | 0.00 | 0.21 | 0.00 | 92 | 1011.4 |
| 20260507073807 | 57 | 109 | 0.0 | 5.0 | 0.00 | 0.21 | 0.00 | 93 | 1011.7 |
| 20260507073307 | 57 | 181 | 2.0 | 5.0 | 0.00 | 0.21 | 0.00 | 93 | 1011.7 |
| 20260507072308 | 57 | 153 | 1.0 | 2.0 | 0.00 | 0.21 | 0.00 | 93 | 1011.7 |
| 20260507071807 | 57 | 135 | 1.0 | 2.0 | 0.00 | 0.21 | 0.00 | 93 | 1011.9 |
| 20260507071307 | 57 | 136 | 1.0 | 3.0 | 0.00 | 0.21 | 0.00 | 92 | 1011.4 |
| 20260507070807 | 57 | 72 | 2.0 | 3.0 | 0.00 | 0.21 | 0.00 | 92 | 1011.4 |
| 20260507070307 | 57 | 24 | 1.0 | 2.0 | 0.00 | 0.21 | 0.00 | 91 | 1011.6 |
| 20260507065308 | 59 | 49 | 2.0 | 5.0 | 0.00 | 0.21 | 0.00 | 87 | 1011.3 |
| 20260507064807 | 59 | 261 | 1.0 | 8.0 | 0.00 | 0.21 | 0.00 | 86 | 1011.0 |
| 20260507064307 | 59 | 270 | 4.0 | 9.0 | 0.00 | 0.21 | 0.00 | 86 | 1011.5 |
| 20260507063807 | 59 | 265 | 3.0 | 9.0 | 0.00 | 0.21 | 0.00 | 87 | 1011.4 |
| 20260507063307 | 59 | 263 | 2.0 | 7.0 | 0.00 | 0.21 | 0.00 | 88 | 1011.5 |
| 20260507062807 | 57 | 267 | 4.0 | 7.0 | 0.00 | 0.21 | 0.00 | 92 | 1011.7 |
| 20260507062307 | 58 | 270 | 2.0 | 5.0 | 0.00 | 0.21 | 0.00 | 90 | 1011.8 |
| 20260507061807 | 58 | 290 | 2.0 | 3.0 | 0.00 | 0.21 | 0.00 | 88 | 1011.8 |
| 20260507061307 | 58 | 101 | 0.0 | 1.0 | 0.00 | 0.21 | 0.00 | 88 | 1011.3 |
| 20260507060807 | 58 | 108 | 0.0 | 2.0 | 0.00 | 0.21 | 0.00 | 87 | 1011.1 |
| 20260507060307 | 58 | 111 | 1.0 | 3.0 | 0.00 | 0.21 | 0.00 | 88 | 1011.5 |
| 20260507055807 | 59 | 62 | 2.0 | 5.0 | 0.00 | 0.21 | 0.00 | 88 | 1011.6 |
| 20260507055307 | 59 | 139 | 0.0 | 3.0 | 0.00 | 0.21 | 0.00 | 87 | 1011.9 |
| 20260507054807 | 59 | 99 | 1.0 | 3.0 | 0.00 | 0.21 | 0.00 | 87 | 1011.9 |
| 20260507054307 | 59 | 149 | 0.0 | 3.0 | 0.00 | 0.21 | 0.00 | 88 | 1011.9 |
| 20260507053807 | 58 | 190 | 2.0 | 3.0 | 0.00 | 0.21 | 0.00 | 89 | 1012.6 |
| 20260507053307 | 58 | 355 | 1.0 | 2.0 | 0.00 | 0.21 | 0.00 | 90 | 1012.6 |
| 20260507052807 | 58 | 354 | 0.0 | 0.0 | 0.00 | 0.21 | 0.00 | 90 | 1012.4 |
| 20260507052307 | 58 | 354 | 0.0 | 2.0 | 0.00 | 0.21 | 0.00 | 90 | 1012.4 |
| 20260507051807 | 58 | 354 | 0.0 | 2.0 | 0.00 | 0.21 | 0.00 | 89 | 1012.7 |
| 20260507051307 | 59 | 310 | 1.0 | 3.0 | 0.00 | 0.21 | 0.00 | 87 | 1012.5 |
| 20260507050807 | 60 | 316 | 1.0 | 6.0 | 0.00 | 0.21 | 0.00 | 86 | 1012.1 |
| 20260507050307 | 60 | 287 | 4.0 | 14.0 | 0.00 | 0.21 | 0.00 | 85 | 1012.5 |
| 20260507045807 | 61 | 254 | 6.0 | 10.0 | 0.00 | 0.21 | 0.00 | 83 | 1011.9 |
| 20260507044807 | 60 | 267 | 2.0 | 5.0 | 0.00 | 0.21 | 0.00 | 81 | 1012.6 |
| 20260507044307 | 60 | 255 | 3.0 | 6.0 | 0.00 | 0.21 | 0.00 | 84 | 1012.4 |
| 20260507043807 | 60 | 270 | 4.0 | 8.0 | 0.00 | 0.21 | 0.00 | 84 | 1012.3 |
| 20260507043307 | 60 | 275 | 4.0 | 8.0 | 0.00 | 0.21 | 0.00 | 84 | 1012.4 |
| 20260507042807 | 61 | 278 | 4.0 | 8.0 | 0.00 | 0.21 | 0.00 | 83 | 1012.5 |
| 20260507042307 | 60 | 239 | 5.0 | 8.0 | 0.00 | 0.21 | 0.00 | 83 | 1012.1 |
| 20260507041807 | 60 | 272 | 5.0 | 10.0 | 0.00 | 0.21 | 0.00 | 83 | 1012.4 |
| 20260507041307 | 60 | 289 | 6.0 | 10.0 | 0.00 | 0.21 | 0.00 | 84 | 1012.2 |
| 20260507040807 | 60 | 234 | 4.0 | 8.0 | 0.00 | 0.21 | 0.00 | 85 | 1012.3 |
| 20260507040307 | 59 | 238 | 2.0 | 8.0 | 0.00 | 0.21 | 0.00 | 86 | 1012.7 |
| 20260507035806 | 59 | 253 | 5.0 | 7.0 | 0.00 | 0.21 | 0.21 | 87 | 1013.2 |
| 20260507035307 | 59 | 260 | 3.0 | 9.0 | 0.01 | 0.21 | 0.21 | 88 | 1012.7 |
| 20260507034307 | 59 | 258 | 1.0 | 2.0 | 0.01 | 0.21 | 0.21 | 90 | 1012.8 |
| 20260507033806 | 59 | 257 | 0.0 | 5.0 | 0.01 | 0.21 | 0.21 | 91 | 1012.7 |
| 20260507033306 | 60 | 301 | 2.0 | 6.0 | 0.02 | 0.21 | 0.21 | 90 | 1012.7 |
| 20260507032807 | 60 | 313 | 3.0 | 6.0 | 0.02 | 0.21 | 0.21 | 90 | 1012.6 |
| 20260507032307 | 60 | 34 | 0.0 | 2.0 | 0.02 | 0.21 | 0.21 | 89 | 1012.6 |
| 20260507031807 | 60 | 23 | 1.0 | 3.0 | 0.02 | 0.21 | 0.21 | 88 | 1012.6 |
| 20260507031306 | 60 | 267 | 2.0 | 6.0 | 0.02 | 0.21 | 0.21 | 87 | 1012.4 |
| 20260507030806 | 60 | 275 | 3.0 | 5.0 | 0.02 | 0.21 | 0.21 | 88 | 1012.3 |
| 20260507030306 | 60 | 254 | 1.0 | 3.0 | 0.02 | 0.21 | 0.21 | 89 | 1012.1 |
| 20260507025807 | 60 | 257 | 3.0 | 7.0 | 0.02 | 0.21 | 0.21 | 89 | 1012.4 |
| 20260507025307 | 60 | 252 | 4.0 | 7.0 | 0.01 | 0.20 | 0.20 | 89 | 1012.4 |
| 20260507024807 | 61 | 256 | 3.0 | 8.0 | 0.01 | 0.20 | 0.20 | 88 | 1012.7 |
| 20260507024306 | 61 | 273 | 6.0 | 12.0 | 0.01 | 0.20 | 0.20 | 87 | 1012.8 |
| 20260507023807 | 62 | 246 | 6.0 | 12.0 | 0.01 | 0.20 | 0.20 | 86 | 1013.0 |
| 20260507023307 | 63 | 268 | 7.0 | 8.0 | 0.00 | 0.19 | 0.19 | 81 | 1013.2 |
| 20260507022806 | 63 | 268 | 7.0 | 12.0 | 0.00 | 0.19 | 0.19 | 81 | 1013.0 |
| 20260507022307 | 63 | 258 | 6.0 | 13.0 | 0.00 | 0.19 | 0.19 | 80 | 1013.2 |
| 20260507021806 | 63 | 276 | 8.0 | 13.0 | 0.00 | 0.19 | 0.19 | 79 | 1012.8 |
| 20260507021306 | 63 | 253 | 5.0 | 13.0 | 0.00 | 0.19 | 0.19 | 78 | 1012.5 |
| 20260507020806 | 63 | 274 | 4.0 | 12.0 | 0.00 | 0.19 | 0.19 | 78 | 1012.1 |
| 20260507020306 | 63 | 267 | 6.0 | 12.0 | 0.00 | 0.19 | 0.19 | 78 | 1012.1 |
| 20260507015806 | 63 | 275 | 5.0 | 14.0 | 0.00 | 0.19 | 0.19 | 78 | 1011.8 |
| 20260507015307 | 63 | 270 | 9.0 | 15.0 | 0.00 | 0.19 | 0.19 | 78 | 1011.8 |
| 20260507014807 | 63 | 248 | 5.0 | 13.0 | 0.00 | 0.19 | 0.19 | 78 | 1011.7 |
| 20260507014306 | 64 | 261 | 7.0 | 13.0 | 0.00 | 0.19 | 0.19 | 77 | 1011.6 |
| 20260507013806 | 64 | 238 | 5.0 | 10.0 | 0.00 | 0.19 | 0.19 | 77 | 1011.3 |
| 20260507013306 | 64 | 251 | 5.0 | 7.0 | 0.00 | 0.19 | 0.19 | 76 | 1011.5 |
| 20260507012807 | 64 | 231 | 4.0 | 13.0 | 0.00 | 0.19 | 0.19 | 76 | 1011.5 |
| 20260507012307 | 64 | 269 | 5.0 | 10.0 | 0.00 | 0.19 | 0.19 | 76 | 1011.6 |
| 20260507011806 | 64 | 290 | 3.0 | 9.0 | 0.00 | 0.19 | 0.19 | 76 | 1012.1 |
| 20260507011306 | 64 | 268 | 5.0 | 9.0 | 0.00 | 0.19 | 0.19 | 76 | 1011.8 |
| 20260507010807 | 64 | 268 | 3.0 | 20.0 | 0.00 | 0.19 | 0.19 | 75 | 1011.5 |
| 20260507005806 | 65 | 184 | 5.0 | 16.0 | 0.00 | 0.19 | 0.19 | 74 | 1010.9 |
| 20260507005307 | 64 | 239 | 3.0 | 8.0 | 0.00 | 0.19 | 0.19 | 74 | 1011.0 |
| 20260507004806 | 65 | 229 | 4.0 | 12.0 | 0.00 | 0.19 | 0.19 | 74 | 1010.6 |
| 20260507004307 | 65 | 249 | 5.0 | 14.0 | 0.00 | 0.19 | 0.19 | 73 | 1010.8 |
| 20260507003806 | 65 | 228 | 7.0 | 14.0 | 0.00 | 0.19 | 0.19 | 72 | 1010.4 |
| 20260507003306 | 65 | 226 | 5.0 | 12.0 | 0.00 | 0.19 | 0.19 | 72 | 1010.5 |
| 20260507002806 | 65 | 246 | 6.0 | 13.0 | 0.00 | 0.19 | 0.19 | 71 | 1011.0 |
| 20260507002306 | 65 | 257 | 5.0 | 10.0 | 0.00 | 0.19 | 0.19 | 72 | 1011.0 |
| 20260507001806 | 65 | 246 | 5.0 | 10.0 | 0.00 | 0.19 | 0.19 | 72 | 1011.0 |
| 20260507001306 | 65 | 259 | 5.0 | 10.0 | 0.00 | 0.19 | 0.19 | 71 | 1011.0 |
| 20260507000806 | 65 | 252 | 5.0 | 8.0 | 0.00 | 0.19 | 0.19 | 72 | 1010.7 |
| 20260507000306 | 65 | 272 | 3.0 | 9.0 | 0.00 | 0.19 | 0.19 | 71 | 1010.6 |
| 20260506235806 | 65 | 253 | 4.0 | 9.0 | 0.00 | 0.19 | 0.19 | 71 | 1010.5 |
| 20260506235307 | 66 | 268 | 3.0 | 7.0 | 0.00 | 0.19 | 0.19 | 70 | 1010.5 |
| 20260506234806 | 66 | 259 | 4.0 | 12.0 | 0.00 | 0.19 | 0.19 | 70 | 1010.8 |
| 20260506234306 | 66 | 275 | 7.0 | 14.0 | 0.00 | 0.19 | 0.19 | 69 | 1010.8 |
| 20260506233806 | 66 | 267 | 8.0 | 14.0 | 0.00 | 0.19 | 0.19 | 69 | 1010.3 |
| 20260506233306 | 66 | 238 | 5.0 | 12.0 | 0.00 | 0.19 | 0.19 | 69 | 1010.3 |
| 20260506232806 | 66 | 236 | 6.0 | 13.0 | 0.00 | 0.19 | 0.19 | 69 | 1010.3 |
| 20260506232306 | 66 | 258 | 8.0 | 13.0 | 0.00 | 0.19 | 0.19 | 69 | 1010.2 |
| 20260506231806 | 67 | 255 | 5.0 | 13.0 | 0.00 | 0.19 | 0.19 | 69 | 1010.1 |
| 20260506231306 | 67 | 271 | 9.0 | 13.0 | 0.00 | 0.19 | 0.19 | 68 | 1010.5 |
| 20260506230806 | 67 | 269 | 5.0 | 10.0 | 0.00 | 0.19 | 0.19 | 69 | 1010.6 |
| 20260506230306 | 67 | 279 | 3.0 | 6.0 | 0.00 | 0.19 | 0.19 | 69 | 1010.3 |
| 20260506225306 | 69 | 276 | 7.0 | 12.0 | 0.00 | 0.19 | 0.19 | 66 | 1009.6 |
| 20260506224806 | 68 | 263 | 4.0 | 10.0 | 0.00 | 0.19 | 0.19 | 66 | 1009.8 |
| 20260506224306 | 68 | 264 | 6.0 | 13.0 | 0.00 | 0.19 | 0.19 | 66 | 1009.9 |
| 20260506223806 | 68 | 218 | 7.0 | 13.0 | 0.00 | 0.19 | 0.19 | 65 | 1009.9 |
| 20260506223306 | 69 | 238 | 6.0 | 12.0 | 0.00 | 0.19 | 0.19 | 64 | 1010.0 |
| 20260506222806 | 69 | 263 | 5.0 | 12.0 | 0.00 | 0.19 | 0.19 | 65 | 1009.6 |
| 20260506222306 | 68 | 260 | 6.0 | 12.0 | 0.00 | 0.19 | 0.19 | 64 | 1009.7 |
| 20260506221806 | 68 | 277 | 6.0 | 12.0 | 0.00 | 0.19 | 0.19 | 65 | 1010.0 |
| 20260506220805 | 68 | 256 | 6.0 | 17.0 | 0.00 | 0.19 | 0.19 | 66 | 1010.5 |
| 20260506220306 | 68 | 271 | 7.0 | 18.0 | 0.00 | 0.19 | 0.19 | 65 | 1010.4 |
| 20260506215805 | 69 | 254 | 6.0 | 13.0 | 0.00 | 0.19 | 0.19 | 64 | 1010.4 |
| 20260506215306 | 69 | 224 | 7.0 | 16.0 | 0.00 | 0.19 | 0.19 | 64 | 1010.2 |
| 20260506214806 | 69 | 269 | 12.0 | 16.0 | 0.00 | 0.19 | 0.19 | 64 | 1010.4 |
| 20260506214306 | 69 | 243 | 10.0 | 24.0 | 0.00 | 0.19 | 0.19 | 64 | 1010.3 |
| 20260506213806 | 69 | 244 | 8.0 | 16.0 | 0.00 | 0.19 | 0.19 | 64 | 1010.0 |
| 20260506212307 | 70 | 255 | 12.0 | 23.0 | 0.00 | 0.19 | 0.19 | 62 | 1009.5 |
| 20260506211805 | 70 | 263 | 9.0 | 21.0 | 0.00 | 0.19 | 0.19 | 63 | 1009.3 |
| 20260506211306 | 69 | 258 | 5.0 | 18.0 | 0.00 | 0.19 | 0.19 | 63 | 1009.6 |
| 20260506210805 | 71 | 262 | 11.0 | 16.0 | 0.00 | 0.19 | 0.19 | 60 | 1009.3 |
| 20260506210305 | 70 | 310 | 5.0 | 17.0 | 0.00 | 0.19 | 0.19 | 64 | 1009.4 |
| 20260506205806 | 70 | 275 | 10.0 | 17.0 | 0.00 | 0.19 | 0.19 | 62 | 1009.4 |
| 20260506205306 | 70 | 267 | 6.0 | 14.0 | 0.00 | 0.19 | 0.19 | 62 | 1009.2 |
| 20260506204806 | 69 | 276 | 7.0 | 26.0 | 0.00 | 0.19 | 0.19 | 63 | 1009.5 |
| 20260506204305 | 69 | 262 | 11.0 | 24.0 | 0.00 | 0.19 | 0.19 | 63 | 1009.3 |
| 20260506203806 | 70 | 263 | 13.0 | 24.0 | 0.00 | 0.19 | 0.19 | 62 | 1009.1 |
| 20260506203305 | 70 | 267 | 9.0 | 15.0 | 0.00 | 0.19 | 0.19 | 64 | 1009.0 |
| 20260506202805 | 69 | 278 | 6.0 | 22.0 | 0.00 | 0.19 | 0.19 | 64 | 1009.6 |
| 20260506202306 | 69 | 247 | 16.0 | 24.0 | 0.00 | 0.19 | 0.19 | 63 | 1009.7 |
| 20260506200805 | 70 | 279 | 11.0 | 16.0 | 0.00 | 0.19 | 0.19 | 63 | 1009.4 |
| 20260506200306 | 70 | 260 | 3.0 | 15.0 | 0.00 | 0.19 | 0.19 | 60 | 1009.6 |
| 20260506195805 | 70 | 301 | 9.0 | 15.0 | 0.00 | 0.19 | 0.19 | 62 | 1009.6 |
| 20260506194805 | 71 | 241 | 9.0 | 15.0 | 0.00 | 0.19 | 0.19 | 61 | 1009.5 |
| 20260506194305 | 70 | 250 | 6.0 | 16.0 | 0.00 | 0.19 | 0.19 | 64 | 1009.8 |
| 20260506193806 | 69 | 238 | 5.0 | 16.0 | 0.00 | 0.19 | 0.19 | 65 | 1009.8 |
| 20260506192805 | 69 | 261 | 10.0 | 16.0 | 0.00 | 0.19 | 0.19 | 64 | 1010.1 |
| 20260506192306 | 69 | 266 | 6.0 | 10.0 | 0.00 | 0.19 | 0.19 | 64 | 1009.8 |
| 20260506191805 | 70 | 230 | 5.0 | 13.0 | 0.00 | 0.19 | 0.19 | 65 | 1009.7 |
| 20260506191305 | 70 | 268 | 5.0 | 10.0 | 0.00 | 0.19 | 0.19 | 68 | 1009.7 |
| 20260506190305 | 69 | 242 | 2.0 | 13.0 | 0.00 | 0.19 | 0.19 | 68 | 1009.9 |
| 20260506185805 | 69 | 241 | 5.0 | 12.0 | 0.00 | 0.19 | 0.19 | 70 | 1009.9 |
| 20260506185307 | 68 | 277 | 6.0 | 12.0 | 0.00 | 0.19 | 0.19 | 69 | 1009.8 |
| 20260506184805 | 68 | 229 | 3.0 | 12.0 | 0.00 | 0.19 | 0.19 | 73 | 1010.2 |
| 20260506184305 | 67 | 241 | 7.0 | 12.0 | 0.00 | 0.19 | 0.19 | 74 | 1010.1 |
| 20260506183805 | 67 | 224 | 6.0 | 10.0 | 0.00 | 0.19 | 0.19 | 71 | 1010.1 |
| 20260506183305 | 67 | 238 | 3.0 | 7.0 | 0.00 | 0.19 | 0.19 | 72 | 1010.2 |
| 20260506182805 | 67 | 240 | 3.0 | 13.0 | 0.00 | 0.19 | 0.19 | 73 | 1010.2 |
| 20260506182307 | 67 | 124 | 2.0 | 12.0 | 0.00 | 0.19 | 0.19 | 73 | 1010.5 |
| 20260506181805 | 66 | 266 | 7.0 | 12.0 | 0.00 | 0.19 | 0.19 | 73 | 1010.8 |
| 20260506181305 | 66 | 267 | 5.0 | 7.0 | 0.00 | 0.19 | 0.19 | 75 | 1010.7 |
| 20260506180805 | 65 | 264 | 4.0 | 9.0 | 0.00 | 0.19 | 0.19 | 76 | 1011.1 |
| 20260506175805 | 65 | 199 | 6.0 | 10.0 | 0.00 | 0.19 | 0.19 | 78 | 1011.1 |
| 20260506174805 | 64 | 244 | 3.0 | 10.0 | 0.00 | 0.19 | 0.19 | 78 | 1011.1 |
| 20260506174305 | 64 | 254 | 7.0 | 12.0 | 0.00 | 0.19 | 0.19 | 79 | 1011.1 |
| 20260506173305 | 64 | 236 | 10.0 | 20.0 | 0.00 | 0.19 | 0.19 | 78 | 1011.2 |
| 20260506172805 | 64 | 250 | 6.0 | 14.0 | 0.00 | 0.19 | 0.19 | 80 | 1011.6 |
| 20260506171305 | 64 | 274 | 3.0 | 9.0 | 0.02 | 0.19 | 0.19 | 80 | 1011.9 |
| 20260506170805 | 64 | 214 | 3.0 | 12.0 | 0.03 | 0.19 | 0.19 | 79 | 1012.1 |
| 20260506170305 | 64 | 188 | 2.0 | 7.0 | 0.03 | 0.19 | 0.19 | 83 | 1012.6 |
| 20260506165805 | 63 | 291 | 5.0 | 10.0 | 0.03 | 0.19 | 0.19 | 82 | 1012.8 |
| 20260506165306 | 63 | 215 | 3.0 | 15.0 | 0.03 | 0.19 | 0.19 | 85 | 1013.1 |
| 20260506164805 | 62 | 242 | 5.0 | 10.0 | 0.03 | 0.19 | 0.19 | 87 | 1013.4 |
| 20260506164305 | 62 | 256 | 7.0 | 12.0 | 0.03 | 0.19 | 0.19 | 87 | 1013.5 |
| 20260506163805 | 62 | 269 | 5.0 | 12.0 | 0.03 | 0.19 | 0.19 | 88 | 1014.0 |
| 20260506163305 | 61 | 253 | 3.0 | 8.0 | 0.03 | 0.19 | 0.19 | 89 | 1013.9 |
| 20260506162805 | 61 | 240 | 4.0 | 8.0 | 0.03 | 0.19 | 0.19 | 90 | 1013.8 |
| 20260506162307 | 61 | 269 | 6.0 | 10.0 | 0.03 | 0.19 | 0.19 | 90 | 1013.8 |
| 20260506161805 | 60 | 227 | 1.0 | 2.0 | 0.02 | 0.18 | 0.18 | 90 | 1014.1 |
| 20260506161305 | 60 | 87 | 1.0 | 2.0 | 0.01 | 0.17 | 0.17 | 90 | 1014.0 |
| 20260506160305 | 60 | 45 | 1.0 | 2.0 | 0.00 | 0.16 | 0.16 | 89 | 1013.8 |
| 20260506155805 | 60 | 94 | 1.0 | 3.0 | 0.00 | 0.16 | 0.16 | 88 | 1013.6 |
| 20260506155306 | 61 | 58 | 1.0 | 3.0 | 0.00 | 0.16 | 0.16 | 89 | 1013.5 |
| 20260506154804 | 60 | 24 | 2.0 | 6.0 | 0.00 | 0.16 | 0.16 | 90 | 1013.7 |
| 20260506154305 | 60 | 356 | 3.0 | 6.0 | 0.00 | 0.16 | 0.16 | 90 | 1013.7 |
| 20260506153804 | 60 | 19 | 2.0 | 5.0 | 0.00 | 0.16 | 0.16 | 90 | 1013.6 |
| 20260506152804 | 59 | 36 | 0.0 | 3.0 | 0.00 | 0.16 | 0.16 | 91 | 1013.5 |
| 20260506152306 | 59 | 54 | 1.0 | 3.0 | 0.00 | 0.16 | 0.16 | 90 | 1013.5 |
| 20260506151804 | 59 | 56 | 2.0 | 5.0 | 0.00 | 0.16 | 0.16 | 90 | 1013.2 |
| 20260506150804 | 59 | 42 | 2.0 | 3.0 | 0.00 | 0.16 | 0.16 | 91 | 1013.1 |
| 20260506150305 | 58 | 41 | 1.0 | 5.0 | 0.00 | 0.16 | 0.16 | 92 | 1013.7 |
| 20260506145805 | 58 | 36 | 2.0 | 5.0 | 0.00 | 0.16 | 0.16 | 92 | 1013.5 |
| 20260506145306 | 58 | 29 | 2.0 | 3.0 | 0.00 | 0.16 | 0.16 | 92 | 1013.5 |
| 20260506144304 | 58 | 44 | 1.0 | 2.0 | 0.00 | 0.16 | 0.16 | 92 | 1013.6 |
| 20260506143804 | 58 | 44 | 1.0 | 2.0 | 0.00 | 0.16 | 0.16 | 92 | 1013.3 |
| 20260506143304 | 58 | 44 | 0.0 | 5.0 | 0.01 | 0.16 | 0.16 | 93 | 1013.3 |
| 20260506142805 | 58 | 41 | 2.0 | 5.0 | 0.01 | 0.16 | 0.16 | 93 | 1013.5 |
| 20260506142306 | 58 | 22 | 1.0 | 2.0 | 0.02 | 0.16 | 0.16 | 93 | 1013.5 |